[[{"header":{"parameterUnit":"m.s-1","parameterCategory":1,"la1":30.2991,"la2":30.254,"lo1":-89.0895,"lo2":-89.0444,"dy":0.0017,"dx":0.0017,"nx":28,"ny":28,"refTime":"2025-12-28T09:00:00:Z","depth":0,"parameterNumber":2,"parameterNumberName":"U-component_of_WINDS"},"data":[0,0,0,0,0,0,0,0,0,0,0,0,0,0,0,0,0,0,0,0,0,0,0,0,0,0,0,0,0,0,0,0,0,0,0,0,0,0,0,0,0,0,0,0,0,0,0,0,0,0,0,0,0,0,0,0,0,0,-1.3137,-1.3137,0,-1.3152,-1.3152,-1.3152,-1.3152,-1.3151,-1.3151,-1.3151,-1.3165,-1.3165,-1.3166,0,0,0,0,0,0,0,0,0,0,0,0,0,-1.3107,-1.3108,-1.3137,-1.3137,-1.3137,-1.3152,-1.3152,-1.3152,-1.3152,-1.3151,-1.3151,-1.3151,-1.3164,-1.3165,-1.3166,0,0,0,0,0,0,0,0,0,0,0,0,0,-1.3121,-1.3108,-1.3137,-1.3139,-1.3139,-1.3151,-1.3152,-1.3152,-1.3152,-1.3151,-1.3151,-1.3151,-1.3164,-1.3165,-1.3166,-1.3176,0,0,-1.3168,-1.3169,0,0,0,0,0,0,0,0,-1.312,-1.3122,-1.3139,-1.3139,-1.3139,-1.315,-1.3146,-1.316,-1.3152,-1.3147,-1.3151,-1.3151,-1.316,-1.3161,-1.3164,-1.3177,-1.3178,-1.3168,-1.3169,-1.3169,-1.3169,0,0,0,0,0,0,0,-1.3119,-1.3121,-1.3143,-1.3139,-1.3139,-1.3139,-1.314,-1.3149,-1.3155,-1.3147,-1.3147,-1.3149,-1.316,-1.3163,-1.3164,-1.3178,-1.3168,-1.3169,-1.3169,-1.317,-1.32,-1.32,0,0,0,0,0,0,-1.3118,-1.3121,-1.3142,-1.3143,-1.3129,-1.3139,-1.3141,-1.3146,-1.3155,-1.3156,-1.3149,-1.3149,-1.3162,-1.3164,-1.3165,-1.3178,-1.3169,-1.317,-1.317,-1.3199,-1.32,-1.32,0,0,0,0,0,0,-1.3117,-1.312,-1.3142,-1.3132,-1.3135,-1.314,-1.3146,-1.3147,-1.315,-1.3156,-1.3157,-1.3152,-1.3162,-1.3164,-1.3174,-1.3178,-1.317,-1.3171,-1.3199,-1.3199,-1.32,-1.3203,0,0,0,0,0,0,-1.3117,-1.312,-1.3124,-1.3132,-1.3135,-1.315,-1.3146,-1.3147,-1.3152,-1.3152,-1.3159,-1.316,-1.3162,-1.3172,-1.3174,-1.3179,-1.3172,-1.3199,-1.3199,-1.32,-1.3202,-1.3203,-1.3204,0,0,0,0,0,-1.3116,-1.3124,-1.3125,-1.3127,-1.3141,-1.3151,-1.3152,-1.3155,-1.3152,-1.3157,-1.316,-1.316,-1.3177,-1.3173,-1.3176,-1.3181,-1.3198,-1.3199,-1.32,-1.3202,-1.3203,-1.3204,0,0,0,0,0,0,-1.3116,-1.3125,-1.3126,-1.3137,-1.3143,-1.3151,-1.3156,-1.3156,-1.3163,-1.3162,-1.3165,-1.3166,-1.3176,-1.3179,-1.3175,-1.3191,-1.3187,-1.3189,-1.3188,-1.319,-1.3191,-1.3189,-1.3172,0,0,0,0,0,-1.3118,-1.3126,-1.3133,-1.3143,-1.3146,-1.315,-1.3155,-1.3156,-1.3162,-1.3165,-1.3169,-1.3175,-1.3181,-1.3186,-1.3192,-1.3203,-1.3204,-1.3208,-1.3209,-1.3209,-1.321,-1.3215,-1.3217,-1.3202,-1.3202,-1.3202,0,0,-1.3121,-1.3127,-1.3132,-1.3143,-1.3148,-1.3155,-1.3153,-1.316,-1.3166,-1.3166,-1.3175,-1.3179,-1.3185,-1.3195,-1.32,-1.3198,-1.3214,-1.321,-1.3211,-1.3211,-1.3216,-1.3218,-1.3219,-1.3203,-1.3203,-1.3203,0,0,-1.3131,-1.3137,-1.3145,-1.315,-1.3157,-1.3161,-1.3163,-1.317,-1.3172,-1.3182,-1.3182,-1.3188,-1.32,-1.3204,-1.3208,-1.3219,-1.3219,-1.3221,-1.3226,-1.3231,-1.3232,-1.3233,-1.3237,-1.3238,-1.3222,-1.3222,-1.3222,0,-1.3134,-1.3146,-1.3149,-1.3157,-1.3162,-1.3163,-1.3171,-1.3175,-1.3184,-1.3187,-1.3185,-1.32,-1.3204,-1.3215,-1.3218,-1.3221,-1.3223,-1.322,-1.3232,-1.3233,-1.3234,-1.3237,-1.3239,-1.3223,-1.3223,-1.3223,-1.3223,0,-1.3149,-1.3157,-1.3162,-1.3172,-1.3177,-1.3185,-1.3189,-1.3194,-1.3195,-1.3198,-1.3207,-1.3213,-1.322,-1.3223,-1.3224,-1.3234,-1.3233,-1.3232,-1.3228,-1.3236,-1.3239,-1.324,-1.3223,-1.3223,-1.3223,-1.3223,0,0,-1.3159,-1.317,-1.3172,-1.3176,-1.3184,-1.319,-1.3198,-1.3206,-1.321,-1.3216,-1.3222,-1.3232,-1.3231,-1.3235,-1.3237,-1.3241,-1.3249,-1.3239,-1.324,-1.324,-1.326,-1.326,-1.3262,-1.3249,-1.3249,-1.325,-1.3259,0,-1.3169,-1.3183,-1.3187,-1.3199,-1.3206,-1.3207,-1.3214,-1.3219,-1.3222,-1.3228,-1.3232,-1.3238,-1.3237,-1.3239,-1.3244,-1.3247,-1.3253,-1.3247,-1.3254,-1.3255,-1.3252,-1.3263,-1.3264,-1.3273,-1.326,-1.3261,-1.3261,0,-1.3183,-1.3189,-1.3202,-1.3209,-1.3213,-1.3219,-1.3226,-1.3232,-1.3238,-1.324,-1.3245,-1.3246,-1.3253,-1.325,-1.326,-1.3256,-1.3259,-1.3261,-1.3262,-1.3262,-1.3258,-1.3263,-1.3276,-1.3277,-1.3263,-1.3263,-1.3262,0,-1.3188,-1.32,-1.321,-1.3213,-1.3222,-1.3226,-1.323,-1.3236,-1.324,-1.3246,-1.3249,-1.3256,-1.3259,-1.3264,-1.3267,-1.3264,-1.3277,-1.3274,-1.3278,-1.3278,-1.328,-1.328,-1.3292,-1.3284,-1.3283,-1.3283,-1.3283,0,-1.3198,-1.3206,-1.3212,-1.3218,-1.3226,-1.323,-1.3238,-1.3241,-1.3247,-1.3253,-1.3254,-1.3259,-1.3263,-1.3269,-1.3271,-1.3279,-1.3281,-1.3282,-1.3282,-1.3282,-1.3281,-1.3283,-1.3282,-1.3284,-1.3284,-1.3284,-1.3284,0,-1.3205,-1.321,-1.322,-1.3228,-1.323,-1.3235,-1.3242,-1.3247,-1.325,-1.3258,-1.3259,-1.3264,-1.3271,-1.3275,-1.3283,-1.3285,-1.3293,-1.3294,-1.3291,-1.3291,-1.3295,-1.3295,-1.3309,-1.3311,-1.3301,-1.3301,-1.3302,0,-1.3211,-1.3217,-1.3226,-1.323,-1.3234,-1.3241,-1.3245,-1.3249,-1.3254,-1.3261,-1.3265,-1.3272,-1.3278,-1.3289,-1.3293,-1.3299,-1.33,-1.3304,-1.33,-1.3299,-1.3299,-1.3298,-1.3299,-1.3305,-1.3305,-1.3305,-1.3305,0,-1.3222,-1.3223,-1.323,-1.3238,-1.3243,-1.3249,-1.3255,-1.3258,-1.3263,-1.3268,-1.3275,-1.3279,-1.3288,-1.3295,-1.3302,-1.3305,-1.3306,-1.3306,-1.3307,-1.3306,-1.3304,-1.3305,-1.3293,-1.3306,-1.3305,-1.3305,-1.3305,-1.3305,-1.3228,-1.3233,-1.324,-1.3247,-1.3252,-1.3257,-1.3262,-1.3266,-1.3273,-1.328,-1.3282,-1.329,-1.3295,-1.3305,-1.3308,-1.3314,-1.3313,-1.3315,-1.3315,-1.3315,-1.3315,-1.3304,-1.3315,-1.3315,-1.3315,-1.3315,-1.3315,0,-1.3237,-1.3242,-1.3249,-1.3257,-1.3262,-1.3263,-1.3269,-1.3274,-1.3281,-1.3286,-1.3292,-1.33,-1.3307,-1.3311,-1.3318,-1.3322,-1.3322,-1.3323,-1.3323,-1.3323,-1.3316,-1.3314,-1.3323,-1.3323,-1.3323,-1.3323,-1.3323,-1.3323,-1.3243,-1.3252,-1.3254,-1.3265,-1.3269,-1.3277,-1.3281,-1.3285,-1.329,-1.3299,-1.3305,-1.3308,-1.3313,-1.332,-1.3326,-1.3327,-1.3329,-1.333,-1.3332,-1.3325,-1.3324,-1.3323,-1.3321,-1.3331,-1.3331,-1.3338,-1.3338,-1.3338]},{"header":{"parameterUnit":"m.s-1","parameterCategory":1,"la1":30.2991,"la2":30.254,"lo1":-89.0895,"lo2":-89.0444,"dy":0.0017,"dx":0.0017,"nx":28,"ny":28,"refTime":"2025-12-28T09:00:00:Z","depth":0,"parameterNumber":3,"parameterNumberName":"V-component_of_WINDS"},"data":[0,0,0,0,0,0,0,0,0,0,0,0,0,0,0,0,0,0,0,0,0,0,0,0,0,0,0,0,0,0,0,0,0,0,0,0,0,0,0,0,0,0,0,0,0,0,0,0,0,0,0,0,0,0,0,0,0,0,2.822,2.8222,0,2.8388,2.839,2.8392,2.843,2.8429,2.8427,2.8426,2.86,2.8606,2.8612,0,0,0,0,0,0,0,0,0,0,0,0,0,2.7934,2.7939,2.822,2.8222,2.8224,2.8388,2.839,2.8393,2.843,2.8428,2.8427,2.8426,2.8598,2.8605,2.8612,0,0,0,0,0,0,0,0,0,0,0,0,0,2.8076,2.7941,2.822,2.8262,2.8268,2.8388,2.839,2.8393,2.843,2.8428,2.8427,2.8425,2.8596,2.8605,2.8613,2.8703,0,0,2.864,2.8643,0,0,0,0,0,0,0,0,2.8068,2.8086,2.8254,2.826,2.8266,2.8386,2.8353,2.8497,2.8431,2.8369,2.8426,2.8424,2.8531,2.8545,2.858,2.8711,2.8718,2.864,2.8646,2.8649,2.8652,0,0,0,0,0,0,0,2.8058,2.8079,2.8287,2.8256,2.8264,2.8274,2.8293,2.8381,2.8458,2.8374,2.8377,2.8396,2.8534,2.8572,2.8585,2.8721,2.864,2.8648,2.8653,2.8656,2.8937,2.8939,0,0,0,0,0,0,2.804,2.8071,2.8281,2.8292,2.816,2.8281,2.8301,2.835,2.8457,2.8472,2.8398,2.8398,2.8558,2.8574,2.8591,2.8706,2.8649,2.8657,2.8662,2.8935,2.8937,2.894,0,0,0,0,0,0,2.8034,2.8059,2.8275,2.8182,2.8211,2.8288,2.8342,2.8354,2.8392,2.8475,2.8489,2.8422,2.8557,2.8579,2.8675,2.8712,2.8661,2.8669,2.8932,2.8935,2.8939,2.8934,0,0,0,0,0,0,2.8025,2.8056,2.809,2.8183,2.8215,2.8355,2.8344,2.8358,2.8407,2.8408,2.8502,2.8516,2.8557,2.8662,2.8684,2.8723,2.8676,2.8929,2.8933,2.8937,2.8931,2.8937,2.8942,0,0,0,0,0,2.8015,2.8082,2.8092,2.8117,2.8259,2.8357,2.8376,2.8422,2.8409,2.8445,2.8499,2.8513,2.8704,2.8672,2.8696,2.8739,2.8927,2.8932,2.8937,2.8929,2.8936,2.8942,0,0,0,0,0,0,2.7991,2.8095,2.8107,2.8205,2.8272,2.8363,2.841,2.8427,2.85,2.8498,2.8553,2.8574,2.8668,2.8712,2.8675,2.8833,2.8815,2.8825,2.88,2.8808,2.8813,2.8801,2.8683,0,0,0,0,0,2.7997,2.8068,2.8154,2.8233,2.8266,2.8332,2.8376,2.8406,2.8478,2.8507,2.8567,2.8637,2.8713,2.8762,2.8837,2.8937,2.896,2.8979,2.8984,2.8988,2.8997,2.9057,2.9067,2.8957,2.8957,2.8956,0,0,2.8011,2.8076,2.8117,2.823,2.8285,2.8358,2.8355,2.8432,2.8487,2.8518,2.8614,2.8661,2.8743,2.8842,2.8889,2.8883,2.9032,2.8994,2.8996,2.9004,2.9063,2.9073,2.9083,2.896,2.8959,2.8959,0,0,2.8074,2.8129,2.8202,2.8258,2.8342,2.8386,2.8403,2.8492,2.8525,2.8622,2.8647,2.8714,2.8843,2.8902,2.8948,2.9034,2.9052,2.9057,2.9085,2.9143,2.9152,2.916,2.9194,2.9205,2.9065,2.9065,2.9065,0,2.8081,2.8191,2.8237,2.8314,2.8364,2.8395,2.8471,2.8523,2.8627,2.8661,2.8652,2.8817,2.8874,2.8989,2.9011,2.9046,2.907,2.9048,2.9146,2.9155,2.9163,2.9197,2.9209,2.9066,2.9066,2.9066,2.9065,0,2.8197,2.8273,2.8322,2.8423,2.8478,2.8553,2.8613,2.8663,2.8688,2.8733,2.8833,2.8902,2.8993,2.9021,2.9046,2.9141,2.9135,2.9135,2.9119,2.9173,2.9206,2.9219,2.9066,2.9066,2.9066,2.9066,0,0,2.8251,2.8377,2.8394,2.8442,2.8537,2.8598,2.8675,2.8764,2.8808,2.8878,2.8947,2.9056,2.9058,2.911,2.9142,2.9192,2.926,2.9187,2.9189,2.9201,2.9373,2.9375,2.9389,2.9271,2.9273,2.9275,2.9368,0,2.8328,2.8468,2.8513,2.863,2.8703,2.8734,2.8802,2.8869,2.8913,2.8982,2.9031,2.9109,2.9103,2.9136,2.9186,2.9241,2.9296,2.9235,2.9338,2.9341,2.932,2.9406,2.9407,2.9491,2.938,2.9382,2.9384,0,2.8438,2.8511,2.8636,2.8725,2.8757,2.8817,2.8904,2.8968,2.9045,2.9074,2.9134,2.9162,2.9246,2.9223,2.9341,2.9298,2.9343,2.9376,2.9381,2.9395,2.9368,2.9425,2.9519,2.9533,2.9404,2.9402,2.9401,0,2.8469,2.8599,2.8691,2.873,2.8835,2.8878,2.8923,2.8999,2.905,2.9125,2.9159,2.9242,2.9289,2.9354,2.9405,2.9382,2.952,2.95,2.9549,2.9548,2.9579,2.9577,2.9684,2.9601,2.9601,2.9601,2.9601,0,2.8553,2.8629,2.8707,2.8765,2.8851,2.8902,2.8987,2.9034,2.9101,2.9169,2.92,2.9263,2.9324,2.9396,2.9436,2.953,2.955,2.9578,2.9588,2.9577,2.9574,2.9609,2.9606,2.9604,2.9603,2.9603,2.9602,0,2.8604,2.8659,2.8763,2.8854,2.8878,2.8939,2.9017,2.9075,2.912,2.9206,2.9229,2.9301,2.9388,2.9444,2.9553,2.958,2.9684,2.9691,2.9659,2.9664,2.9711,2.9707,2.9848,2.9871,2.9769,2.977,2.977,0,2.8656,2.8716,2.8813,2.8861,2.8907,2.8983,2.9036,2.9088,2.9142,2.9235,2.9282,2.9371,2.9445,2.9582,2.9644,2.9729,2.9741,2.9784,2.9754,2.9742,2.9746,2.9743,2.9751,2.979,2.9791,2.9791,2.9792,0,2.8743,2.8768,2.8842,2.8927,2.8989,2.9058,2.9128,2.9165,2.9229,2.9289,2.9378,2.9435,2.9548,2.9636,2.9727,2.9776,2.9796,2.9801,2.9817,2.9808,2.9789,2.9804,2.9676,2.9798,2.9797,2.9797,2.9797,2.9796,2.8799,2.8855,2.8933,2.9016,2.9073,2.9138,2.9197,2.925,2.9325,2.9421,2.9447,2.9541,2.9618,2.9743,2.9793,2.9868,2.9863,2.9886,2.9892,2.9898,2.9901,2.9773,2.9884,2.9884,2.9884,2.9884,2.9884,0,2.8891,2.8943,2.9019,2.9115,2.9181,2.9192,2.927,2.9325,2.9407,2.9477,2.9549,2.9653,2.9739,2.9808,2.9898,2.9945,2.9957,2.9967,2.9966,2.9977,2.9898,2.9877,2.9956,2.9956,2.9956,2.9956,2.9956,2.9956,2.8947,2.9043,2.9077,2.9202,2.9254,2.9346,2.939,2.945,2.9507,2.9621,2.9693,2.9738,2.9809,2.9903,2.9984,3.0002,3.0035,3.0044,3.0065,2.999,2.9982,2.9975,2.9955,3.005,3.005,3.0139,3.014,3.014]}]]